[[{"header":{"parameterUnit":"m.s-1","parameterCategory":1,"la1":30.2991,"la2":30.254,"lo1":-89.0895,"lo2":-89.0444,"dy":0.0017,"dx":0.0017,"nx":28,"ny":28,"refTime":"2023-10-05T03:00:00:Z","depth":0,"parameterNumber":2,"parameterNumberName":"U-component_of_WINDS"},"data":[0,0,0,0,0,0,0,0,0,0,0,0,0,0,0,0,0,0,0,0,0,0,0,0,0,0,0,0,0,0,0,0,0,0,0,0,0,0,0,0,0,0,0,0,0,0,0,0,0,0,0,0,0,0,0,0,0,0,-2.2794,-2.2795,0,-2.2846,-2.2846,-2.2847,-2.2851,-2.2851,-2.285,-2.285,-2.2904,-2.2906,-2.2908,0,0,0,0,0,0,0,0,0,0,0,0,0,-2.2702,-2.2704,-2.2794,-2.2795,-2.2795,-2.2846,-2.2846,-2.2847,-2.2852,-2.2851,-2.285,-2.285,-2.2904,-2.2906,-2.2908,0,0,0,0,0,0,0,0,0,0,0,0,0,-2.2747,-2.2704,-2.2794,-2.2804,-2.2805,-2.2846,-2.2846,-2.2847,-2.2852,-2.2851,-2.285,-2.2849,-2.2903,-2.2906,-2.2909,-2.2944,0,0,-2.2918,-2.2919,0,0,0,0,0,0,0,0,-2.2744,-2.275,-2.2802,-2.2803,-2.2805,-2.2841,-2.2834,-2.288,-2.2852,-2.2834,-2.285,-2.2849,-2.2884,-2.2889,-2.29,-2.2946,-2.2949,-2.2918,-2.292,-2.2921,-2.2922,0,0,0,0,0,0,0,-2.2741,-2.2748,-2.2815,-2.2802,-2.2804,-2.2806,-2.2812,-2.2843,-2.2863,-2.2836,-2.2836,-2.2842,-2.2885,-2.2897,-2.2901,-2.2949,-2.2918,-2.292,-2.2922,-2.2923,-2.3029,-2.303,0,0,0,0,0,0,-2.2736,-2.2745,-2.2813,-2.2816,-2.2772,-2.2809,-2.2815,-2.283,-2.2863,-2.2867,-2.2843,-2.2842,-2.2893,-2.2898,-2.2903,-2.2947,-2.2921,-2.2924,-2.2925,-2.3028,-2.3029,-2.303,0,0,0,0,0,0,-2.2734,-2.2742,-2.2811,-2.2781,-2.279,-2.2811,-2.2829,-2.2832,-2.2844,-2.2868,-2.2872,-2.2851,-2.2892,-2.2899,-2.2934,-2.2949,-2.2925,-2.2928,-2.3026,-2.3028,-2.3029,-2.3034,0,0,0,0,0,0,-2.2731,-2.2741,-2.2754,-2.2781,-2.2791,-2.284,-2.283,-2.2834,-2.2849,-2.2849,-2.2877,-2.2881,-2.2892,-2.2929,-2.2937,-2.2953,-2.293,-2.3025,-2.3027,-2.3029,-2.3033,-2.3036,-2.3038,0,0,0,0,0,-2.2728,-2.2753,-2.2754,-2.2763,-2.2808,-2.284,-2.2846,-2.2858,-2.285,-2.2864,-2.288,-2.288,-2.2947,-2.2933,-2.2941,-2.2958,-2.3024,-2.3026,-2.3029,-2.3032,-2.3035,-2.3038,0,0,0,0,0,0,-2.2727,-2.2757,-2.2759,-2.2793,-2.2814,-2.2841,-2.2858,-2.2861,-2.2885,-2.2883,-2.2897,-2.2904,-2.2938,-2.2952,-2.2936,-2.2995,-2.2985,-2.2989,-2.2984,-2.2988,-2.299,-2.2986,-2.2933,0,0,0,0,0,-2.2731,-2.2754,-2.278,-2.2808,-2.2818,-2.2837,-2.2851,-2.2858,-2.2881,-2.289,-2.2908,-2.293,-2.2956,-2.2973,-2.2998,-2.3036,-2.3042,-2.3052,-2.3054,-2.3056,-2.306,-2.3082,-2.3086,-2.3037,-2.3037,-2.3037,0,0,-2.2739,-2.2758,-2.2772,-2.2808,-2.2825,-2.285,-2.2844,-2.287,-2.2889,-2.2894,-2.2927,-2.2942,-2.2968,-2.3005,-2.3022,-2.3017,-2.3075,-2.3059,-2.3061,-2.3063,-2.3084,-2.3089,-2.3093,-2.3039,-2.3039,-2.3038,0,0,-2.2767,-2.2783,-2.2809,-2.2827,-2.2853,-2.2865,-2.2871,-2.2898,-2.2908,-2.2942,-2.2946,-2.297,-2.3014,-2.3033,-2.3048,-2.3085,-2.3087,-2.3093,-2.3107,-2.3128,-2.3132,-2.3135,-2.3149,-2.3154,-2.3096,-2.3096,-2.3096,0,-2.2774,-2.281,-2.2822,-2.2848,-2.2865,-2.2871,-2.2897,-2.2914,-2.2947,-2.2959,-2.2953,-2.301,-2.3028,-2.3069,-2.3078,-2.309,-2.3099,-2.3089,-2.313,-2.3134,-2.3137,-2.315,-2.3155,-2.3097,-2.3096,-2.3096,-2.3096,0,-2.2818,-2.2843,-2.2861,-2.2893,-2.2911,-2.2938,-2.2955,-2.2972,-2.2978,-2.2991,-2.3027,-2.3049,-2.3079,-2.309,-2.3096,-2.3133,-2.313,-2.3127,-2.3117,-2.3142,-2.3155,-2.316,-2.3097,-2.3097,-2.3097,-2.3097,0,0,-2.2845,-2.2883,-2.289,-2.2905,-2.2935,-2.2955,-2.2983,-2.3012,-2.3027,-2.3051,-2.3075,-2.3113,-2.3111,-2.3129,-2.3137,-2.3156,-2.3185,-2.3152,-2.3153,-2.3157,-2.3228,-2.3229,-2.3234,-2.3187,-2.3188,-2.3189,-2.3226,0,-2.2876,-2.2923,-2.2936,-2.2977,-2.3002,-2.3009,-2.3033,-2.3055,-2.3068,-2.3092,-2.3108,-2.3135,-2.313,-2.3141,-2.316,-2.3177,-2.3199,-2.3175,-2.321,-2.3211,-2.3203,-2.3241,-2.3242,-2.3276,-2.3231,-2.3231,-2.3232,0,-2.2917,-2.2941,-2.2985,-2.3013,-2.3024,-2.3045,-2.3074,-2.3096,-2.3121,-2.313,-2.3151,-2.3158,-2.3189,-2.3178,-2.3221,-2.3204,-2.322,-2.3231,-2.3232,-2.3235,-2.3223,-2.3245,-2.3286,-2.3291,-2.324,-2.3239,-2.3239,0,-2.2933,-2.2976,-2.3008,-2.3021,-2.3054,-2.3069,-2.3084,-2.3109,-2.3126,-2.3152,-2.3163,-2.3192,-2.3208,-2.3231,-2.3247,-2.3237,-2.3289,-2.3279,-2.3297,-2.3297,-2.3307,-2.3306,-2.3351,-2.3318,-2.3318,-2.3318,-2.3317,0,-2.2966,-2.2992,-2.3016,-2.3035,-2.3066,-2.3081,-2.3111,-2.3126,-2.3148,-2.3172,-2.318,-2.3203,-2.3222,-2.3248,-2.326,-2.3294,-2.3301,-2.331,-2.3313,-2.3309,-2.3308,-2.3319,-2.3317,-2.3319,-2.3319,-2.3318,-2.3318,0,-2.2988,-2.3005,-2.304,-2.3069,-2.3077,-2.3098,-2.3123,-2.3144,-2.3158,-2.3188,-2.3196,-2.3219,-2.325,-2.3268,-2.3306,-2.3315,-2.3353,-2.3355,-2.3344,-2.3345,-2.3363,-2.3361,-2.3416,-2.3425,-2.3386,-2.3386,-2.3386,0,-2.3008,-2.3028,-2.3059,-2.3076,-2.309,-2.3116,-2.3134,-2.315,-2.3169,-2.32,-2.3217,-2.3248,-2.3273,-2.3322,-2.3343,-2.3373,-2.3376,-2.3393,-2.338,-2.3376,-2.3376,-2.3375,-2.3377,-2.3395,-2.3395,-2.3396,-2.3396,0,-2.3041,-2.3049,-2.3073,-2.3101,-2.3122,-2.3145,-2.3168,-2.3182,-2.3202,-2.3222,-2.3253,-2.3273,-2.3313,-2.3344,-2.3376,-2.3393,-2.3398,-2.34,-2.3406,-2.3402,-2.3395,-2.3399,-2.335,-2.3398,-2.3398,-2.3398,-2.3398,-2.3398,-2.3063,-2.3082,-2.3107,-2.3135,-2.3154,-2.3175,-2.3196,-2.3213,-2.3239,-2.3272,-2.328,-2.3313,-2.334,-2.3384,-2.3401,-2.3428,-2.3425,-2.3434,-2.3436,-2.3438,-2.3438,-2.3391,-2.3434,-2.3434,-2.3434,-2.3434,-2.3434,0,-2.3097,-2.3114,-2.3139,-2.3171,-2.3193,-2.3196,-2.3222,-2.3241,-2.3269,-2.3293,-2.3319,-2.3355,-2.3386,-2.3409,-2.3441,-2.3458,-2.3462,-2.3466,-2.3465,-2.3469,-2.3439,-2.343,-2.3463,-2.3463,-2.3463,-2.3463,-2.3463,-2.3463,-2.3118,-2.315,-2.3161,-2.3203,-2.322,-2.3252,-2.3266,-2.3287,-2.3306,-2.3346,-2.3371,-2.3387,-2.3411,-2.3445,-2.3474,-2.348,-2.3492,-2.3496,-2.3503,-2.3474,-2.3471,-2.3468,-2.346,-2.3498,-2.3498,-2.353,-2.3531,-2.3531]},{"header":{"parameterUnit":"m.s-1","parameterCategory":1,"la1":30.2991,"la2":30.254,"lo1":-89.0895,"lo2":-89.0444,"dy":0.0017,"dx":0.0017,"nx":28,"ny":28,"refTime":"2023-10-05T03:00:00:Z","depth":0,"parameterNumber":3,"parameterNumberName":"V-component_of_WINDS"},"data":[0,0,0,0,0,0,0,0,0,0,0,0,0,0,0,0,0,0,0,0,0,0,0,0,0,0,0,0,0,0,0,0,0,0,0,0,0,0,0,0,0,0,0,0,0,0,0,0,0,0,0,0,0,0,0,0,0,0,3.9141,3.9141,0,3.9145,3.9145,3.9145,3.9166,3.9166,3.9167,3.9167,3.9168,3.9168,3.9167,0,0,0,0,0,0,0,0,0,0,0,0,0,3.9147,3.9147,3.9141,3.9141,3.9141,3.9145,3.9145,3.9145,3.9166,3.9166,3.9167,3.9167,3.9168,3.9168,3.9167,0,0,0,0,0,0,0,0,0,0,0,0,0,3.9147,3.9147,3.9141,3.9152,3.9153,3.9145,3.9145,3.9145,3.9165,3.9166,3.9167,3.9168,3.9168,3.9168,3.9167,3.9149,0,0,3.9165,3.9165,0,0,0,0,0,0,0,0,3.9147,3.9147,3.915,3.9151,3.9152,3.9156,3.9148,3.9146,3.9165,3.916,3.9167,3.9168,3.9163,3.9163,3.9162,3.9149,3.9149,3.9165,3.9165,3.9164,3.9164,0,0,0,0,0,0,0,3.9147,3.9147,3.9142,3.915,3.9151,3.9155,3.9156,3.9148,3.9157,3.9161,3.9162,3.9163,3.9164,3.9163,3.9162,3.9149,3.9165,3.9164,3.9164,3.9164,3.9122,3.9121,0,0,0,0,0,0,3.9146,3.9146,3.9142,3.9143,3.9151,3.9155,3.9156,3.9154,3.9158,3.9159,3.9162,3.9164,3.9163,3.9163,3.9162,3.9142,3.9164,3.9164,3.9163,3.9123,3.9122,3.9121,0,0,0,0,0,0,3.9146,3.9145,3.9142,3.9145,3.9145,3.9154,3.9152,3.9153,3.9152,3.9159,3.916,3.916,3.9164,3.9163,3.9153,3.9142,3.9163,3.9163,3.9124,3.9122,3.9121,3.9101,0,0,0,0,0,0,3.9146,3.9145,3.9139,3.9145,3.9145,3.9133,3.9151,3.9153,3.9152,3.9154,3.9157,3.9158,3.9164,3.9153,3.9152,3.9142,3.9162,3.9125,3.9123,3.9122,3.9103,3.9099,3.9097,0,0,0,0,0,3.9146,3.9131,3.9138,3.9138,3.9137,3.9132,3.9132,3.9141,3.9151,3.9144,3.9149,3.9158,3.9144,3.9152,3.9151,3.914,3.9125,3.9124,3.9122,3.9104,3.91,3.9097,0,0,0,0,0,0,3.9122,3.9132,3.914,3.9127,3.9129,3.9136,3.9128,3.9136,3.9134,3.9136,3.9147,3.9147,3.9135,3.9136,3.9146,3.9124,3.9136,3.9134,3.9123,3.9119,3.9116,3.9116,3.9162,0,0,0,0,0,3.9116,3.9112,3.9121,3.9108,3.9109,3.9118,3.9116,3.9124,3.9125,3.9126,3.9129,3.9129,3.9126,3.9122,3.9119,3.9103,3.9104,3.9095,3.9092,3.909,3.9088,3.9081,3.9077,3.9116,3.9116,3.9116,0,0,3.9101,3.9107,3.9103,3.9104,3.9106,3.9102,3.9119,3.9112,3.9109,3.9124,3.9115,3.9118,3.9119,3.9106,3.91,3.9107,3.9078,3.9088,3.9086,3.9085,3.9079,3.9075,3.9072,3.9115,3.9115,3.9115,0,0,3.9074,3.9077,3.9068,3.9071,3.9075,3.9081,3.9079,3.9085,3.9088,3.9079,3.9091,3.9087,3.9079,3.908,3.9079,3.9054,3.9063,3.9053,3.9037,3.903,3.9027,3.9024,3.9016,3.9013,3.9051,3.9051,3.9051,0,3.9056,3.905,3.9062,3.9056,3.9056,3.9072,3.9063,3.9064,3.9066,3.9065,3.9073,3.9065,3.9067,3.9055,3.9049,3.9048,3.9046,3.9052,3.9026,3.9024,3.9022,3.9014,3.9011,3.9049,3.905,3.905,3.905,0,3.9028,3.9024,3.9016,3.902,3.9019,3.9011,3.9022,3.9019,3.9027,3.9032,3.9024,3.9027,3.9025,3.9023,3.9029,3.9012,3.9016,3.9025,3.9038,3.9017,3.901,3.9007,3.9048,3.9048,3.9048,3.9049,0,0,3.8984,3.8997,3.8993,3.8996,3.9002,3.8999,3.8992,3.8992,3.899,3.8991,3.8986,3.898,3.8989,3.8988,3.8995,3.8989,3.897,3.8999,3.8999,3.8994,3.8953,3.8947,3.8943,3.8976,3.8976,3.8975,3.8953,0,3.8959,3.895,3.8961,3.8949,3.8946,3.8961,3.8955,3.8958,3.8963,3.8961,3.8966,3.8963,3.8974,3.8974,3.8969,3.8974,3.8962,3.8975,3.8971,3.8971,3.8971,3.8939,3.8932,3.8911,3.895,3.895,3.8949,0,3.8928,3.893,3.8918,3.8927,3.8926,3.892,3.8922,3.892,3.8923,3.8928,3.8928,3.8937,3.8931,3.8944,3.8935,3.8944,3.8943,3.8945,3.8945,3.8945,3.8959,3.8939,3.8904,3.8901,3.8945,3.8945,3.8946,0,3.8898,3.8898,3.8891,3.8892,3.8902,3.8898,3.8902,3.8907,3.8906,3.8907,3.8907,3.8907,3.8906,3.8906,3.8915,3.8923,3.8905,3.8919,3.8909,3.8908,3.8904,3.8904,3.887,3.8903,3.8903,3.8903,3.8903,0,3.8869,3.8861,3.8878,3.8874,3.8866,3.8879,3.887,3.8875,3.888,3.8876,3.8889,3.8885,3.8897,3.8895,3.8901,3.8894,3.8893,3.8897,3.8898,3.8896,3.8895,3.8895,3.8897,3.8902,3.8902,3.8902,3.8902,0,3.8835,3.8846,3.884,3.885,3.8853,3.8846,3.8855,3.8851,3.8858,3.8854,3.8853,3.8864,3.8862,3.8871,3.8869,3.8874,3.8863,3.8867,3.8863,3.8864,3.8854,3.8855,3.8818,3.8814,3.8849,3.8849,3.8849,0,3.8815,3.881,3.8821,3.8821,3.8824,3.8823,3.8823,3.8836,3.8836,3.8841,3.8836,3.8836,3.8836,3.8832,3.8839,3.8839,3.8843,3.883,3.8843,3.8841,3.8844,3.8844,3.8844,3.8828,3.8827,3.8827,3.8826,0,3.878,3.8787,3.8788,3.8791,3.8791,3.8794,3.8797,3.8796,3.881,3.8809,3.8808,3.8808,3.8809,3.8808,3.8809,3.8812,3.8822,3.8823,3.882,3.8818,3.8816,3.8817,3.8856,3.8823,3.8824,3.8824,3.8824,3.8824,3.8754,3.875,3.8758,3.8759,3.8763,3.8766,3.8764,3.8772,3.8771,3.8774,3.8781,3.8779,3.8784,3.8787,3.8789,3.8788,3.8794,3.879,3.8789,3.8788,3.8787,3.8816,3.8788,3.8788,3.8788,3.8788,3.8788,0,3.872,3.8726,3.8727,3.8733,3.8733,3.8744,3.8748,3.8748,3.8747,3.8751,3.8752,3.8751,3.8751,3.8759,3.876,3.8757,3.8761,3.8757,3.8757,3.8758,3.8781,3.8784,3.8753,3.8753,3.8753,3.8753,3.8753,3.8753,3.8703,3.8698,3.8706,3.8704,3.8709,3.8709,3.8711,3.8714,3.8718,3.8717,3.8718,3.8723,3.8729,3.8731,3.8731,3.8733,3.8733,3.8727,3.8731,3.8753,3.8756,3.8759,3.8762,3.8727,3.8727,3.8708,3.8708,3.8708]}]]